This is the latest recevied weather packets stored in our database for station/object N2UFM. If no packets are shown the sender has not sent any weather packets the latest 1 day(s).
| Time | Temp. | Humidity | Pressure | Rain* | Wind** | Luminosity | Snow |
|---|---|---|---|---|---|---|---|
| 1778005143 | 30° C | 37% | 1010.1 hPa | 0 mm | 1.34 m/s, 228° | - | - |
| 1778004843 | 29.44° C | 37% | 1010.1 hPa | 0 mm | 2.68 m/s, 259° | - | - |
| 1778004543 | 29.44° C | 37% | 1010.1 hPa | 0 mm | 1.34 m/s, 237° | - | - |
| 1778004242 | 29.44° C | 37% | 1010.2 hPa | 0 mm | 2.24 m/s, 213° | - | - |
| 1778003942 | 29.44° C | 39% | 1010.3 hPa | 0 mm | 0.89 m/s, 264° | - | - |
| 1778003642 | 29.44° C | 38% | 1010.3 hPa | 0 mm | 2.68 m/s, 239° | - | - |
| 1778003342 | 28.89° C | 41% | 1010.4 hPa | 0 mm | 0.45 m/s, 217° | - | - |
| 1778003042 | 28.89° C | 40% | 1010.4 hPa | 0 mm | 0.89 m/s, 267° | - | - |
| 1778002742 | 29.44° C | 40% | 1010.5 hPa | 0 mm | 1.34 m/s, 225° | - | - |
| 1778002442 | 28.89° C | 40% | 1010.5 hPa | 0 mm | 0.89 m/s, 214° | - | - |
| 1778002141 | 28.89° C | 40% | 1010.6 hPa | 0 mm | 0.45 m/s, 273° | - | - |
| 1778001841 | 28.89° C | 42% | 1010.6 hPa | 0 mm | 0.45 m/s, 271° | - | - |
| 1778001541 | 28.33° C | 42% | 1010.7 hPa | 0 mm | 0.89 m/s, 220° | - | - |
| 1778001241 | 28.33° C | 43% | 1010.8 hPa | 0 mm | 0.89 m/s, 212° | - | - |
| 1778000941 | 27.78° C | 43% | 1010.7 hPa | 0 mm | 0.89 m/s, 208° | - | - |
| 1778000641 | 28.33° C | 43% | 1010.8 hPa | 0 mm | 1.34 m/s, 146° | - | - |
| 1778000341 | 27.78° C | 44% | 1010.8 hPa | 0 mm | 2.24 m/s, 215° | - | - |
| 1778000040 | 27.78° C | 45% | 1010.9 hPa | 0 mm | 0.89 m/s, 164° | - | - |
| 1777999740 | 27.22° C | 46% | 1011.1 hPa | 0 mm | 1.34 m/s, 249° | - | - |
| 1777999440 | 27.22° C | 46% | 1011.1 hPa | 0 mm | 0.89 m/s, 177° | - | - |
| 1777999140 | 27.22° C | 45% | 1011.2 hPa | 0 mm | 1.34 m/s, 153° | - | - |
| 1777998840 | 27.78° C | 44% | 1011.1 hPa | 0 mm | 0.89 m/s, 215° | - | - |
| 1777998540 | 27.22° C | 44% | 1011.3 hPa | 0 mm | 0.89 m/s, 231° | - | - |
| 1777998240 | 27.22° C | 45% | 1011.3 hPa | 0 mm | 0.89 m/s, 218° | - | - |
| 1777997939 | 27.22° C | 45% | 1011.6 hPa | 0 mm | 0.89 m/s, 201° | - | - |
* Rain latest hour (hover to see other rain measurements)
** Current wind speed in m/s (hover to see current wind gust speed)